This demonstration page uses our WeatherBlox Daily Observations layout. Learn more.

Left ArrowRight Arrow

Hourly Observations for May 24, 2018

Temp ( °F °C ) Dew Point ( °F °C ) Humidity (%) Winds ( mph kmh ) Pressure ( in mb ) Visibility ( mi km ) Precip ( " mm )
12:53 am 00:53 Partly Cloudy 67 19.4 51 10.6 57 57 undefined N/A 29.93 1014 10 16 0.00 0.00
1:53 am 01:53 Clear 64 17.8 51 10.6 63 63 SW 5 7 29.94 1014 10 16 0.00 0.00
2:53 am 02:53 Clear 61 16.1 52 11.1 72 72 Calm 29.94 1014 10 16 0.00 0.00
3:53 am 03:53 Clear 60 15.6 51 10.6 72 72 Calm 29.94 1014 10 16 0.00 0.00
4:53 am 04:53 Clear 56 13.3 51 10.6 84 84 NE 5 7 29.95 1014 10 16 0.00 0.00
5:53 am 05:53 Sunny 57 13.9 51 10.6 81 81 Calm 29.96 1015 10 16 0.00 0.00
6:53 am 06:53 Sunny 60 15.6 51 10.6 72 72 Calm 29.96 1015 10 16 0.00 0.00
7:53 am 07:53 Sunny 62 16.7 51 10.6 67 67 SE 3 6 29.97 1015 10 16 0.00 0.00
8:53 am 08:53 Sunny 65 18.3 50 10 59 59 Calm 29.97 1015 10 16 0.00 0.00
9:53 am 09:53 Sunny 70 21.1 50 10 49 49 Calm 29.96 1015 10 16 0.00 0.00
10:53 am 10:53 Sunny 73 22.8 51 10.6 46 46 SW 5 7 29.95 1014 10 16 0.00 0.00
11:53 am 11:53 Sunny 79 26.1 51 10.6 38 38 VRB 3 6 29.93 1014 10 16 0.00 0.00
12:53 pm 12:53 Sunny 80 26.7 47 8.3 31 31 SSE 3 6 29.92 1013 10 16 0.00 0.00
1:53 pm 13:53 Sunny 83 28.3 50 10 32 32 VRB 3 6 29.90 1012 10 16 0.00 0.00
2:53 pm 14:53 Sunny 85 29.4 46 7.8 26 26 Calm 29.88 1012 10 16 0.00 0.00
3:53 pm 15:53 Sunny 85 29.4 47 8.3 27 27 SSE 5 7 29.86 1011 10 16 0.00 0.00
4:53 pm 16:53 Sunny 86 30 46 7.8 25 25 SSE 8 13 29.83 1010 10 16 0.00 0.00
5:53 pm 17:53 Sunny 85 29.4 44 6.7 24 24 S 9 15 29.83 1010 10 16 0.00 0.00
6:53 pm 18:53 Sunny 82 27.8 50 10 33 33 SSE 13 20 29.83 1010 10 16 0.00 0.00
7:53 pm 19:53 Sunny 79 26.1 47 8.3 32 32 S 13 20 29.85 1011 10 16 0.00 0.00
8:53 pm 20:53 Clear 76 24.4 45 7.2 33 33 S 12 19 29.87 1012 10 16 0.00 0.00
9:53 pm 21:53 Clear 75 23.9 51 10.6 43 43 S 13 20 29.89 1012 10 16 0.00 0.00
10:53 pm 22:53 Clear 72 22.2 50 10 46 46 S 12 19 29.91 1013 10 16 0.00 0.00
11:53 pm 23:53 Mostly Cloudy 69 20.6 47 8.3 45 45 S 13 20 29.92 1013 10 16 0.00 0.00

Powered by AerisWeather